Terug naar catalogus

FREGAT DEB

ActiefUNKNOWN
NORAD 46095·DEBRIS·🇷🇺 Russia

Gelanceerd Jul 18, 2011 vanaf Baikonur Cosmodrome

Loading…

Volgende Passages (komende 24 uur)

TLE

VerouderdSource: Space-Track

Epoch: May 31, 2026, 23:23 UTC

1 46095U 11037JE  26151.97463323  .00001922  00000-0  45442-1 0  9992
2 46095  50.9219   1.7850 1470379 267.3275  75.8907 10.03468759209512

Volg FREGAT DEB in realtime met AllMySat

Download on the App Store